Flag for United Kingdom Weather past 2 weeks in Newport, Wales, United Kingdom

Now
66 °F

Scattered clouds.


Feels Like: 66 °F
Forecast: 52 / 67 °F
Wind: 14 mph from West

Location: Bristol / Lulsgate

Current Time: Jul 4, 2015 at 7:01:05 PM

Latest Report: Jul 4, 2015 at 6:20 PM


Visibility: N/A

Pressure: 30.12 "Hg

Humidity: 56%

Dew point: 50 °F

Location of NewportLocation

Historic Weather in Newport — Graph

°F

Newport temperature yesterday

Maximum temperature yesterday: 75 °F (at 4:20 PM)
Minimum temperature yesterday: 48 °F (at 3:50 AM)
Average temperature yesterday: 65 °F

Past Weeks' High & Low Weather Summary

 TemperatureHumidityPressure
High84 °F (Jul 1, 3:20 PM)100% (Jun 20, 2:50 AM)30.30 "Hg (Jun 20, 2:50 AM)
Low48 °F (Jun 23, 2:20 AM)39% (Jun 30, 4:50 PM)29.80 "Hg (Jul 1, 5:50 AM)
Average61 °F78%30.08 "Hg
* Reported Jun 19 5:20 PM — Jul 4 5:50 PM, Newport, Weather by CustomWeather, © 2015

Note: Actual official high and low records may vary slightly from our data, if they occured in-between our weather recording intervals... More about our weather records

Advertising

Newport weather history for previous 24 hours

 ConditionsComfort  
Time TempWeatherWind HumidityBarometerVisibility
5:50 PM
Sat, Jul 4
68 °FScattered clouds.14 mph53%30.12 "HgN/A
5:20 PM68 °FScattered clouds.14 mph56%30.12 "HgN/A
4:50 PM68 °FScattered clouds.10 mph56%30.12 "HgN/A
4:20 PM68 °FScattered clouds.13 mph53%30.12 "HgN/A
3:50 PM68 °FScattered clouds.14 mph53%30.12 "HgN/A
3:20 PM70 °FScattered clouds.16 mph53%30.09 "HgN/A
2:50 PM70 °FPassing clouds.15 mph57%30.09 "HgN/A
2:20 PM70 °FPassing clouds.16 mph60%30.09 "HgN/A
1:50 PM70 °FPassing clouds.16 mph60%30.09 "HgN/A
1:20 PM68 °FPassing clouds.17 mph69%30.09 "HgN/A
12:50 PM68 °FPassing clouds.15 mph69%30.09 "HgN/A
12:20 PM70 °FScattered clouds.13 mph69%30.07 "HgN/A
11:50 AM66 °FScattered clouds.14 mph78%30.07 "HgN/A
11:20 AM70 °FScattered clouds.15 mph64%30.04 "HgN/A
10:50 AM70 °FScattered clouds.15 mph69%30.04 "HgN/A
10:20 AM66 °FPartly sunny.12 mph78%30.04 "HgN/A
9:50 AM66 °FPartly sunny.13 mph78%30.04 "HgN/A
9:20 AM64 °FPartly sunny.12 mph83%30.04 "HgN/A
8:50 AM64 °FScattered clouds.8 mph83%30.04 "HgN/A
8:20 AM64 °FPartly sunny.9 mph83%30.01 "HgN/A
7:50 AM63 °FPartly sunny.9 mph88%30.01 "HgN/A
7:20 AM63 °FPartly sunny.7 mph88%30.01 "Hg5 mi
6:50 AM63 °FPartly sunny.7 mph88%30.01 "Hg5 mi
6:20 AM64 °FLow clouds.5 mph88%29.98 "Hg4 mi
5:50 AM64 °FPassing clouds.6 mph88%29.98 "Hg4 mi
5:20 AM64 °FMostly cloudy.6 mph88%29.98 "Hg3 mi
4:50 AM66 °FPassing clouds.7 mph88%29.95 "Hg4 mi
4:20 AM66 °FPassing clouds.8 mph88%29.95 "HgN/A
3:50 AM64 °FPassing clouds.10 mph88%29.95 "HgN/A
3:20 AM64 °FThundershowers. Passing clouds.10 mph88%29.92 "HgN/A
2:50 AM63 °FThundershowers. Passing clouds.7 mph88%29.95 "HgN/A
2:20 AM63 °FThundershowers. Passing clouds.12 mph88%29.92 "HgN/A
1:50 AM63 °FThundershowers. Passing clouds.15 mph88%29.92 "HgN/A
1:20 AM63 °FThundershowers. Passing clouds.17 mph88%29.95 "HgN/A
12:50 AM63 °FThundershowers. Passing clouds.18 mph88%29.98 "HgN/A
12:20 AM64 °FPassing clouds.18 mph78%29.98 "HgN/A
11:50 PM
Fri, Jul 3
66 °FPassing clouds.17 mph73%29.98 "HgN/A
11:20 PM68 °FPassing clouds.16 mph69%30.01 "HgN/A
10:50 PM68 °FPassing clouds.17 mph69%30.01 "HgN/A
10:20 PM70 °FSunny.17 mph64%30.01 "Hg10 mi
9:50 PM72 °FSunny.18 mph65%30.04 "Hg10 mi
9:20 PM72 °FSunny.16 mph65%30.04 "Hg10 mi
8:50 PM73 °FSunny.13 mph61%30.04 "Hg10 mi
8:20 PM73 °FSunny.12 mph61%30.04 "Hg10 mi
7:50 PM73 °FSunny.12 mph61%30.07 "Hg10 mi
7:20 PM73 °FSunny.13 mph57%30.07 "Hg10 mi
Weather by CustomWeather, © 2015

See weather overviewHow to use our weather pages